Kalaeloa, HI

1:52 AM HST on June 27, 2017 (GMT -1000)
Kalaeloa (John Rodgers Field)

Weather History for PHJR - November, 2011

Change the Weather History Date:

Saturday, November 26, 2011

  Actual Average (PHHI) Record (PHHI)
Temperature  
Mean Temperature 75 °F -  
Max Temperature 82 °F 75 °F 82 °F (2002)
Min Temperature 68 °F 65 °F 60 °F (2014)
Cooling Degree Days 10    
Growing Degree Days 25 (Base 50)    
Moisture  
Dew Point 63 °F    
Average Humidity 71    
Maximum Humidity 87    
Minimum Humidity 51    
Precipitation  
Precipitation 0.02 in - - ()
Sea Level Pressure  
Sea Level Pressure 30.16 in    
Wind  
Wind Speed 4 mph (ENE)    
Max Wind Speed 12 mph    
Max Gust Speed 18 mph    
Visibility 10 miles    
Events Rain    
Averages and records for this station are not official NWS values.
T = Trace of Precipitation, MM = Missing Value Source: NWS Daily Summary

Daily Weather History Graph

Daily Weather History Graph

Search for Another Location

Airport or City:

Trip Planner

Search our weather history database for the weather conditions in past years. The results will help you decide how hot, cold, wet, or windy it might be!

Date:

Astronomy

Nov. 26, 2011 Rise Set
Actual Time 6:50 AM HST 5:49 PM HST
Civil Twilight 6:26 AM HST 6:12 PM HST
Nautical Twilight 5:58 AM HST 6:40 PM HST
Astronomical Twilight 5:32 AM HST 7:07 PM HST
Moon 8:25 AM HST (11/26) 7:38 PM HST (11/26)
Length of Visible Light 11h 46m
Length of Day
10h 58m
Waxing Crescent, 4% of the Moon is Illuminated
Nov 26
Waxing Crescent
Dec 1
First Quarter
Dec 10
Full
Dec 17
Last Quarter
Dec 24
New

Hourly Weather History & Observations

Time (HST) Temp. Heat Index Dew Point Humidity Pressure Visibility Wind Dir Wind Speed Gust Speed Precip Events Conditions
12:53 AM 70.0 °F - 62.1 °F 76% 30.16 in 10.0 mi Variable 3.5 mph - N/A   Clear
1:28 AM 69.8 °F - 62.6 °F 78% 30.13 in 10.0 mi Calm Calm - N/A   Partly Cloudy
1:53 AM 69.1 °F - 62.1 °F 78% 30.14 in 10.0 mi Calm Calm - N/A   Partly Cloudy
2:53 AM 69.1 °F - 62.1 °F 78% 30.13 in 10.0 mi Variable 3.5 mph - N/A   Partly Cloudy
3:53 AM 69.1 °F - 61.0 °F 75% 30.13 in 10.0 mi Calm Calm - N/A   Scattered Clouds
4:53 AM 68.0 °F - 61.0 °F 78% 30.12 in 10.0 mi Variable 3.5 mph - N/A   Clear
5:53 AM 69.1 °F - 61.0 °F 75% 30.13 in 10.0 mi Calm Calm - N/A   Clear
6:53 AM 69.1 °F - 61.0 °F 75% 30.14 in 10.0 mi Variable 3.5 mph - N/A   Clear
7:53 AM 71.1 °F - 62.1 °F 73% 30.16 in 10.0 mi Variable 3.5 mph - N/A   Clear
8:53 AM 78.1 °F - 63.0 °F 60% 30.17 in 10.0 mi Variable 3.5 mph - N/A   Clear
9:53 AM 81.0 °F 81.9 °F 62.1 °F 52% 30.18 in 10.0 mi ENE 10.4 mph 16.1 mph N/A   Scattered Clouds
10:53 AM 80.1 °F 81.2 °F 62.1 °F 54% 30.17 in 10.0 mi NE 8.1 mph - N/A   Mostly Cloudy
11:53 AM 82.0 °F 83.0 °F 62.1 °F 51% 30.15 in 10.0 mi NE 9.2 mph - N/A   Mostly Cloudy
12:53 PM 78.1 °F - 66.0 °F 66% 30.13 in 10.0 mi East 5.8 mph - 0.00 in   Overcast
1:53 PM 80.1 °F 81.7 °F 64.0 °F 58% 30.10 in 10.0 mi ENE 11.5 mph 18.4 mph N/A   Mostly Cloudy
2:53 PM 75.9 °F - 64.9 °F 69% 30.10 in 9.0 mi ENE 8.1 mph - 0.00 in Rain Light Rain
3:53 PM 75.9 °F - 63.0 °F 64% 30.11 in 10.0 mi ENE 9.2 mph - 0.00 in   Overcast
4:53 PM 73.9 °F - 64.0 °F 71% 30.13 in 10.0 mi Variable 4.6 mph - 0.00 in   Overcast
5:53 PM 73.9 °F - 63.0 °F 68% 30.15 in 10.0 mi ENE 4.6 mph - 0.00 in   Overcast
6:53 PM 73.9 °F - 62.1 °F 66% 30.17 in 10.0 mi Variable 5.8 mph - N/A   Overcast
7:53 PM 71.1 °F - 64.9 °F 81% 30.21 in 7.0 mi Variable 3.5 mph - 0.00 in Rain Light Rain
8:53 PM 69.1 °F - 64.9 °F 87% 30.22 in 10.0 mi Variable 3.5 mph - 0.01 in   Overcast
9:53 PM 70.0 °F - 64.9 °F 84% 30.23 in 10.0 mi Variable 3.5 mph - 0.01 in   Overcast
10:53 PM 70.0 °F - 64.0 °F 81% 30.23 in 10.0 mi Variable 3.5 mph - 0.00 in   Mostly Cloudy
11:53 PM 70.0 °F - 63.0 °F 78% 30.22 in 10.0 mi Variable 3.5 mph - N/A   Mostly Cloudy